{"data":{"norad_id":47648,"epoch":"2026-09-20T03:59:20.335776Z","epoch_age_seconds":54536,"freshness":"FRESH","line1":"1 47648U 21012AE  26263.16620759  .00000230  00000+0  19182-4 0  9999","line2":"2 47648  53.1607 224.4739 0001240  84.4413 275.6730 15.31707518310108","mean_motion":15.31707518,"eccentricity":0.000124,"inclination_deg":53.1607,"raan_deg":224.4739,"arg_perigee_deg":84.4413,"mean_anomaly_deg":275.673,"bstar":1.9182e-5,"rev_number":31010,"period_min":94.012726521069,"perigee_km":469.86832658203,"apogee_km":471.566842519,"semimajor_km":6848.8545845505,"source":"CELESTRAK","updated_at":"2026-09-20T09:00:38.598385Z"}}